Wind_Speed
54 50 53 46 46 42 40 37 31 30 28 28 27 24 22 19 16 12 9 6 4 7 5 3 4 4 7 6 8 9 6 7 8 8 8 9 10 9 8 7 6 6 4 4 5 6 6 5 5
51 51 48 49 48 45 42 39 36 34 32 28 29 27 25 22 19 16 13 9 7 6 5 3 3 3 4 6 7 9 10 9 7 9 9 8 8 7 6 5 5 5 5 5 7 9 11 11 11
55 47 44 49 51 49 46 43 41 38 35 33 32 31 29 26 23 20 17 15 12 9 7 5 4 3 2 4 7 9 8 8 8 11 11 8 9 9 9 10 10 7 7 9 11 12 14 13 13
65 47 43 47 46 54 48 46 44 42 39 38 35 32 30 27 25 23 21 19 17 14 12 10 8 6 5 2 5 6 8 9 10 10 14 13 14 13 14 13 11 10 11 14 15 14 14 13 13
67 59 48 48 50 52 51 47 46 45 43 41 39 37 34 30 28 26 24 22 21 19 16 15 13 12 9 5 2 4 6 8 12 13 13 13 15 17 14 14 14 14 15 15 14 12 13 12 14
61 62 54 49 46 49 49 48 50 47 45 44 42 39 36 34 33 30 27 25 23 22 20 19 18 17 15 11 6 3 3 5 10 11 11 12 15 17 16 14 15 15 14 13 12 12 12 14 17
62 63 52 53 50 45 53 51 51 49 48 48 47 44 41 37 35 33 31 30 28 26 24 23 23 20 19 17 15 10 5 2 3 6 8 10 13 16 16 15 14 14 15 12 10 10 12 16 18
54 58 55 44 49 45 48 50 54 53 53 51 51 48 44 40 38 38 37 36 35 32 29 28 26 26 24 21 18 14 11 8 5 2 5 9 11 11 14 13 12 11 12 12 9 9 11 14 16
59 61 58 49 55 45 48 45 46 54 56 55 54 50 47 39 37 42 38 40 39 38 34 30 32 30 29 27 24 20 16 13 9 8 5 7 9 11 10 12 10 10 10 10 10 9 9 11 12
53 55 56 51 54 48 44 46 49 51 54 54 54 57 55 51 44 25 36 42 38 41 41 38 34 36 34 33 30 27 22 19 15 14 11 8 8 10 10 10 8 7 7 8 9 9 8 9 10
44 49 59 58 49 53 51 56 50 54 56 60 59 58 57 55 54 52 37 37 44 46 43 42 39 39 40 38 36 33 29 24 22 19 17 13 11 9 9 10 8 5 6 5 6 7 7 8 10
45 36 47 57 53 47 50 55 62 61 61 60 62 63 60 59 59 58 57 50 40 44 48 47 45 46 43 44 42 40 36 32 27 25 23 19 16 13 13 12 11 6 5 3 4 5 7 8 11
46 39 41 48 47 55 53 51 55 56 56 59 60 58 64 63 63 66 62 62 58 52 50 52 52 48 48 48 47 45 42 38 35 32 29 27 23 20 17 15 15 11 6 2 0 3 7 7 13
49 54 47 47 45 49 55 53 56 59 60 57 58 61 64 66 69 69 69 67 66 65 57 52 56 54 52 50 49 47 47 43 41 37 35 32 30 27 24 21 18 16 10 7 3 2 3 7 10
34 39 45 51 52 57 63 61 58 59 67 66 65 64 63 64 67 70 71 69 69 69 68 65 60 55 55 51 51 52 50 49 48 44 40 38 36 32 30 27 24 19 18 13 8 5 3 6 7
35 36 38 42 46 49 55 55 66 68 68 71 74 76 77 77 71 71 72 73 71 69 71 71 68 67 60 51 55 54 56 52 50 50 45 43 40 39 35 33 31 28 23 22 16 12 9 9 8
42 43 45 46 46 49 53 53 57 60 62 68 70 73 78 81 84 82 81 78 76 75 74 73 71 71 69 66 58 57 56 60 56 52 52 51 45 44 43 39 37 35 32 28 25 20 17 14 12
44 47 49 52 54 57 61 60 60 60 63 63 65 68 72 78 80 84 86 86 87 85 82 78 76 77 75 73 73 67 63 57 59 57 56 53 50 48 46 45 43 41 39 35 31 28 23 20 18
41 49 56 56 55 59 63 66 69 71 72 74 76 76 76 76 77 77 80 82 86 88 90 88 86 80 77 77 75 76 74 69 64 62 59 59 53 49 50 47 46 47 46 42 39 37 35 30 26
22 32 38 44 49 58 60 62 67 72 75 78 82 85 87 90 90 90 88 85 80 79 84 85 87 88 87 85 82 79 78 80 75 70 65 64 57 54 52 52 48 48 52 49 47 43 40 36 33
22 23 27 31 38 45 51 57 61 68 73 77 81 87 91 95 97 97 99 100 100 97 89 83 83 82 87 91 92 87 84 82 82 78 71 68 62 59 56 55 55 54 50 54 53 52 49 46 41
31 30 33 37 38 38 40 44 48 54 59 67 77 83 88 94 101 103 102 103 104 102 99 99 99 92 89 87 87 91 90 92 87 83 79 71 64 51 58 62 61 61 61 53 57 56 55 52 51
39 36 37 39 42 42 44 47 44 49 52 55 59 65 74 88 96 98 103 107 110 109 106 104 105 103 98 101 98 94 89 95 92 92 84 82 73 58 65 62 63 60 63 66 62 61 61 58 55
44 44 43 43 44 46 47 50 50 52 54 56 59 60 63 68 81 91 96 99 100 103 107 110 111 108 103 104 104 101 102 96 97 100 94 92 86 79 69 55 71 73 69 73 71 70 66 64 61
51 53 52 52 48 54 53 53 55 55 57 60 62 60 61 65 68 74 82 87 93 100 100 99 99 101 102 108 108 107 109 108 104 99 98 99 95 90 83 51 71 77 77 77 75 74 74 71 65
55 57 59 60 55 58 53 52 54 59 60 64 64 61 63 65 65 66 70 76 81 83 92 95 93 95 95 95 96 97 104 111 113 112 109 102 102 101 101 98 85 68 73 79 78 74 76 80 70
60 62 63 66 62 62 56 56 58 61 62 65 63 64 65 62 60 59 61 65 67 70 76 82 88 90 90 92 94 95 95 96 105 114 119 114 107 107 107 108 106 92 81 84 82 81 77 79 81
63 66 66 67 64 65 57 58 61 59 63 64 65 65 61 56 52 51 51 53 54 54 60 66 75 82 85 86 89 92 95 97 99 102 106 115 119 114 113 113 111 109 98 89 87 90 81 81 83
66 68 70 70 69 62 63 62 65 64 64 64 65 60 53 48 46 43 42 44 47 48 50 53 59 68 77 84 87 90 93 96 98 102 105 108 115 124 118 118 115 115 106 100 102 102 93 88 86
69 70 73 75 69 66 71 70 67 63 60 60 55 47 44 42 42 39 38 40 46 50 54 59 64 69 76 81 86 91 95 98 100 102 103 105 108 113 129 125 121 120 116 112 110 107 106 92 88
Wind_Direction
216 232 233 230 226 225 224 226 225 225 226 227 229 228 232 232 232 214 225 243 293 316 352 13 18 22 13 17 10 20 16 13 25 5 1 360 5 6 357 345 348 351 9 61 60 74 63 56 48
216 218 232 233 231 225 223 225 228 227 227 226 225 228 232 232 232 226 223 227 251 283 320 316 336 336 12 19 15 15 18 19 16 22 12 20 30 34 38 31 28 11 38 64 72 65 63 62 60
214 214 223 232 235 226 225 225 227 225 225 227 228 231 235 236 234 232 223 224 238 249 263 288 263 287 309 30 34 27 27 22 25 47 23 37 54 51 46 45 40 35 40 55 61 59 56 59 67
215 214 220 223 236 231 224 224 226 226 225 229 231 234 234 238 237 234 234 229 231 243 249 255 252 249 258 295 35 38 42 30 40 51 44 48 53 49 46 46 41 39 45 44 45 50 57 65 79
216 215 217 218 231 235 227 225 227 229 229 230 233 235 234 239 239 235 236 238 238 240 252 258 264 257 253 261 354 18 41 41 44 56 65 48 45 38 35 45 41 37 42 45 48 50 66 77 82
217 214 219 214 225 235 236 227 227 228 230 231 233 235 236 239 240 237 232 239 244 246 246 256 258 263 266 264 269 302 17 36 43 51 46 36 39 41 35 46 52 46 42 49 55 56 69 81 81
213 216 218 215 217 230 237 236 232 229 231 233 233 235 236 236 237 236 235 237 242 243 245 247 258 260 263 260 262 272 250 313 21 32 21 20 37 41 36 34 44 51 48 48 56 63 79 81 84
213 215 216 225 216 227 235 240 238 237 233 234 237 237 236 235 238 239 240 240 242 242 244 240 240 250 256 260 260 258 252 246 262 329 4 5 12 22 30 23 26 35 54 56 55 63 76 85 86
215 212 215 220 221 218 231 234 242 244 239 240 239 240 240 238 245 242 243 242 240 242 242 247 239 236 241 250 256 252 253 251 242 261 295 320 338 353 18 22 22 32 45 63 67 72 74 86 87
213 217 215 218 227 220 223 237 238 239 243 244 245 245 245 243 236 236 243 242 239 241 245 242 241 238 236 238 245 250 245 246 246 245 257 272 299 320 336 3 14 20 41 49 67 82 82 89 96
214 219 219 221 224 227 223 223 237 238 239 239 239 240 243 244 243 240 238 241 243 242 248 247 243 242 239 234 238 242 245 243 246 245 244 249 261 284 305 326 346 2 8 48 70 87 98 105 108
217 218 227 224 227 223 228 232 228 233 240 242 241 241 241 241 242 241 238 235 237 240 242 244 243 242 241 238 234 235 240 243 241 244 241 243 248 258 273 289 304 305 320 343 82 97 105 116 121
218 225 230 228 233 235 230 227 229 234 241 245 242 242 241 240 242 242 241 240 238 240 232 233 237 240 240 236 236 234 235 239 241 244 242 241 243 247 256 266 281 282 292 282 50 108 122 127 133
229 228 233 234 235 241 241 240 237 234 236 237 243 247 247 245 244 247 248 246 242 241 238 234 237 238 235 238 237 235 233 233 238 242 244 241 241 245 249 252 260 271 257 253 225 181 149 140 148
233 235 242 244 246 245 247 245 248 247 244 241 245 247 247 247 247 247 247 247 249 242 240 237 238 239 237 237 239 237 235 233 232 238 241 244 241 241 245 250 252 252 255 245 232 218 205 199 170
242 243 243 242 244 245 244 251 252 253 249 246 247 248 250 249 248 249 251 250 248 245 245 244 239 240 236 238 240 241 238 237 237 235 238 240 243 245 242 244 248 247 247 248 236 230 230 209 228
237 240 241 242 247 250 252 248 249 252 253 252 251 253 254 253 252 250 248 251 252 252 248 247 243 240 237 236 236 239 239 237 237 237 235 233 238 244 247 242 243 245 243 244 242 233 232 232 241
248 248 247 247 249 250 248 246 246 248 252 251 248 249 253 258 256 253 250 249 250 251 251 249 247 245 242 239 238 238 235 233 235 238 238 235 235 239 242 247 242 242 244 243 240 239 234 237 237
258 262 266 265 260 256 253 253 251 252 252 252 252 248 248 248 248 251 254 254 251 251 250 251 249 246 246 245 243 240 236 238 236 234 239 237 238 239 240 240 247 244 242 244 246 241 239 233 237
285 275 270 267 265 267 267 263 260 257 256 256 256 255 256 256 253 251 249 246 244 247 249 250 249 247 245 244 245 245 240 239 238 238 235 238 239 240 238 238 238 247 247 242 244 246 242 240 237
322 306 293 283 275 269 267 268 268 266 264 263 261 258 255 254 255 256 255 253 250 247 244 240 241 244 247 247 243 243 245 243 240 238 239 239 240 241 242 241 241 238 247 251 243 243 244 244 239
328 316 308 309 303 287 278 272 271 269 267 268 265 262 259 260 257 254 254 255 255 253 251 247 242 240 245 245 244 242 241 240 242 239 236 238 240 242 251 251 242 241 240 242 249 243 242 242 244
333 323 317 309 307 303 299 293 290 283 278 276 272 267 265 264 259 256 255 253 253 254 253 251 248 245 242 244 248 246 241 238 240 239 235 235 235 222 237 248 249 246 243 244 241 245 244 239 240
325 327 322 317 310 308 299 297 292 292 291 292 289 282 274 268 263 261 258 253 252 250 251 252 251 250 245 241 241 245 247 242 239 238 236 236 234 232 234 261 251 249 242 243 244 242 243 244 241
322 318 320 318 310 312 305 296 292 290 291 294 294 289 282 275 269 265 262 259 253 249 248 247 247 247 249 249 243 238 240 243 243 240 238 236 233 232 225 228 233 240 243 244 244 245 246 243 245
321 318 318 319 311 314 304 296 295 291 289 294 294 292 289 284 274 267 263 260 258 253 248 245 245 245 245 245 245 244 240 239 240 240 241 236 233 231 230 225 227 234 239 241 239 241 243 243 239
319 317 317 317 313 314 306 300 301 296 294 296 296 294 292 286 279 273 267 263 260 257 251 247 243 243 243 243 242 242 239 238 238 240 238 238 234 230 230 230 231 230 235 237 238 236 237 241 240
318 317 316 316 312 312 302 300 298 297 297 295 295 295 295 288 281 276 270 266 264 260 255 253 248 244 243 244 243 241 240 238 235 235 236 236 234 230 229 230 231 232 233 234 239 235 233 236 238
318 316 315 316 314 309 305 303 302 297 297 296 296 298 295 289 283 277 268 263 260 259 259 257 254 250 247 247 246 246 244 242 240 236 233 233 233 231 229 228 230 232 231 229 231 237 237 233 232
318 316 315 317 314 306 307 308 305 301 297 299 296 296 292 291 285 278 267 257 254 255 256 257 256 256 255 254 251 249 249 247 245 243 240 237 234 233 229 227 227 229 230 229 230 234 238 232 235
Height
10811 10818 10828 10838 10845 10851 10855 10859 10865 10868 10871 10872 10874 10876 10876 10877 10879 10882 10881 10881 10880 10881 10879 10878 10877 10877 10878 10877 10876 10875 10873 10871 10869 10869 10867 10865 10862 10861 10859 10857 10855 10853 10851 10849 10847 10845 10844 10842 10840
10803 10811 10824 10832 10836 10844 10849 10855 10859 10862 10865 10868 10870 10871 10873 10875 10877 10878 10879 10879 10879 10879 10879 10878 10877 10877 10877 10876 10875 10875 10874 10872 10871 10868 10866 10864 10862 10861 10860 10858 10856 10854 10852 10849 10846 10844 10843 10840 10839
10797 10806 10817 10823 10828 10837 10844 10848 10852 10856 10859 10863 10865 10867 10870 10872 10874 10875 10877 10877 10877 10877 10877 10877 10877 10877 10877 10876 10875 10875 10874 10873 10871 10868 10867 10865 10863 10862 10860 10858 10856 10855 10852 10849 10846 10843 10841 10840 10839
10790 10802 10808 10815 10822 10828 10837 10841 10845 10850 10853 10856 10860 10864 10866 10868 10871 10873 10874 10875 10875 10875 10876 10876 10876 10876 10876 10876 10875 10874 10874 10873 10871 10869 10868 10866 10864 10863 10861 10859 10858 10855 10851 10848 10846 10844 10842 10842 10840
10783 10795 10801 10810 10816 10822 10831 10835 10840 10844 10849 10851 10854 10858 10861 10864 10867 10869 10871 10872 10874 10874 10874 10875 10876 10875 10875 10875 10874 10874 10873 10873 10872 10870 10869 10867 10865 10863 10861 10859 10858 10856 10852 10850 10848 10846 10844 10843 10842
10775 10786 10796 10804 10811 10817 10825 10830 10833 10837 10842 10845 10848 10853 10856 10858 10860 10863 10866 10868 10869 10871 10873 10873 10874 10875 10875 10875 10874 10873 10873 10873 10872 10871 10870 10869 10867 10864 10863 10861 10859 10857 10854 10852 10850 10848 10846 10845 10842
10767 10781 10794 10800 10807 10811 10816 10823 10827 10831 10833 10837 10841 10846 10849 10851 10854 10857 10860 10862 10863 10865 10867 10870 10872 10872 10873 10874 10874 10874 10873 10872 10871 10871 10870 10870 10869 10867 10864 10863 10861 10858 10856 10855 10853 10850 10848 10846 10844
10760 10775 10786 10793 10799 10805 10809 10815 10820 10822 10825 10830 10833 10837 10841 10846 10849 10852 10854 10856 10857 10859 10860 10863 10866 10868 10870 10871 10872 10872 10872 10872 10871 10870 10870 10869 10869 10868 10866 10864 10862 10860 10858 10856 10855 10852 10849 10847 10846
10760 10769 10777 10785 10792 10797 10802 10807 10811 10814 10818 10821 10825 10829 10835 10839 10841 10846 10848 10849 10851 10854 10856 10858 10859 10861 10863 10866 10868 10869 10870 10870 10869 10869 10868 10869 10868 10867 10866 10865 10863 10861 10860 10857 10855 10853 10851 10848 10847
10754 10762 10771 10780 10784 10791 10794 10799 10802 10806 10809 10813 10817 10820 10825 10829 10834 10838 10838 10841 10845 10847 10849 10852 10854 10856 10858 10859 10861 10863 10865 10866 10867 10867 10867 10866 10867 10867 10866 10865 10863 10862 10860 10858 10856 10854 10852 10850 10849
10750 10756 10764 10771 10774 10780 10783 10788 10791 10795 10799 10801 10805 10810 10814 10818 10822 10827 10830 10831 10833 10836 10842 10846 10848 10849 10851 10853 10856 10857 10858 10860 10862 10863 10864 10864 10865 10865 10865 10864 10863 10862 10861 10859 10857 10855 10853 10851 10850
10746 10750 10757 10762 10765 10771 10776 10780 10783 10785 10788 10792 10795 10799 10804 10807 10809 10813 10817 10822 10823 10825 10829 10833 10837 10841 10843 10846 10848 10850 10852 10853 10856 10859 10860 10862 10862 10862 10863 10862 10861 10861 10860 10859 10857 10856 10854 10853 10851
10742 10744 10748 10754 10757 10761 10766 10768 10773 10777 10780 10780 10783 10786 10791 10795 10797 10799 10803 10810 10814 10817 10818 10821 10824 10829 10833 10835 10839 10843 10846 10848 10849 10851 10854 10856 10858 10859 10860 10860 10859 10859 10859 10859 10858 10856 10854 10854 10852
10739 10741 10742 10748 10753 10754 10757 10761 10765 10768 10769 10770 10770 10774 10780 10784 10787 10789 10792 10796 10801 10805 10810 10811 10815 10818 10822 10826 10831 10835 10839 10842 10843 10845 10847 10850 10852 10854 10856 10857 10857 10858 10858 10857 10857 10856 10855 10854 10853
10733 10736 10739 10741 10745 10746 10749 10754 10754 10757 10759 10759 10761 10763 10765 10769 10773 10775 10778 10781 10786 10790 10795 10801 10803 10805 10812 10817 10821 10825 10830 10833 10834 10837 10840 10842 10845 10847 10850 10852 10854 10855 10856 10856 10855 10855 10854 10853 10852
10726 10728 10731 10732 10733 10735 10739 10739 10742 10745 10747 10749 10749 10751 10753 10755 10760 10762 10764 10766 10770 10775 10780 10785 10789 10794 10801 10805 10809 10812 10819 10823 10827 10829 10831 10834 10838 10840 10842 10845 10848 10850 10852 10854 10853 10852 10852 10852 10851
10716 10719 10721 10721 10721 10722 10725 10729 10728 10728 10730 10732 10734 10734 10736 10739 10741 10746 10750 10752 10754 10758 10765 10769 10774 10779 10785 10791 10796 10800 10804 10811 10815 10819 10821 10823 10827 10831 10833 10836 10840 10843 10846 10848 10850 10850 10849 10849 10849
10707 10707 10708 10707 10709 10711 10713 10716 10715 10716 10715 10717 10718 10718 10719 10720 10722 10725 10730 10735 10738 10742 10746 10752 10757 10763 10768 10775 10781 10786 10791 10796 10803 10805 10809 10814 10817 10821 10825 10828 10831 10834 10838 10841 10844 10846 10845 10845 10846
10699 10697 10696 10695 10694 10694 10695 10696 10698 10698 10699 10700 10699 10700 10702 10704 10702 10704 10707 10712 10718 10722 10725 10731 10740 10745 10751 10758 10764 10771 10777 10781 10786 10791 10796 10802 10807 10812 10816 10819 10823 10825 10827 10832 10837 10838 10839 10840 10841
10691 10689 10688 10685 10683 10680 10679 10679 10678 10677 10677 10678 10678 10680 10680 10679 10682 10682 10684 10688 10694 10699 10705 10709 10715 10723 10730 10739 10745 10753 10759 10764 10771 10778 10783 10790 10796 10801 10805 10807 10812 10815 10818 10822 10825 10829 10831 10833 10833
10686 10683 10681 10678 10673 10669 10667 10663 10661 10659 10657 10655 10654 10653 10655 10656 10655 10654 10656 10661 10667 10675 10682 10688 10693 10698 10707 10715 10725 10733 10739 10745 10753 10762 10770 10778 10785 10790 10795 10798 10802 10804 10807 10811 10815 10818 10820 10822 10825
10678 10675 10671 10667 10663 10658 10655 10652 10647 10643 10639 10635 10631 10630 10629 10627 10628 10630 10630 10631 10636 10643 10652 10662 10671 10678 10683 10689 10698 10709 10718 10724 10732 10743 10753 10761 10772 10779 10783 10782 10788 10792 10794 10797 10801 10806 10807 10811 10812
10669 10665 10660 10655 10650 10645 10640 10633 10631 10626 10622 10616 10610 10605 10602 10601 10599 10598 10601 10604 10609 10610 10616 10627 10639 10650 10660 10667 10672 10681 10692 10703 10708 10720 10734 10743 10755 10766 10761 10774 10779 10779 10782 10785 10786 10792 10796 10797 10801
10658 10653 10649 10643 10637 10631 10626 10617 10615 10607 10601 10595 10590 10583 10578 10573 10570 10567 10568 10573 10576 10580 10586 10592 10603 10614 10627 10640 10649 10656 10664 10675 10686 10696 10709 10722 10734 10746 10757 10763 10761 10763 10764 10767 10770 10775 10781 10787 10790
10646 10640 10635 10630 10622 10615 10609 10602 10595 10589 10582 10575 10568 10562 10555 10548 10542 10539 10537 10538 10542 10548 10554 10562 10571 10581 10591 10603 10617 10629 10637 10646 10656 10669 10682 10697 10712 10722 10731 10721 10731 10736 10741 10747 10755 10761 10769 10772 10777
10636 10628 10621 10616 10609 10601 10594 10586 10581 10572 10564 10557 10548 10540 10533 10524 10517 10515 10512 10508 10510 10517 10524 10535 10545 10553 10562 10571 10581 10592 10606 10617 10626 10637 10651 10667 10683 10695 10702 10702 10706 10713 10720 10727 10735 10743 10749 10755 10760
10623 10615 10607 10599 10590 10582 10575 10568 10562 10552 10544 10536 10527 10519 10511 10502 10496 10492 10490 10488 10488 10491 10496 10505 10514 10523 10533 10542 10551 10561 10573 10584 10596 10605 10617 10633 10649 10661 10671 10677 10684 10692 10695 10704 10711 10722 10730 10735 10742
10610 10602 10594 10584 10575 10567 10560 10552 10541 10536 10526 10518 10509 10499 10490 10482 10478 10475 10472 10471 10471 10473 10475 10481 10488 10497 10507 10515 10522 10531 10540 10551 10564 10574 10583 10597 10613 10628 10639 10651 10661 10670 10678 10687 10690 10698 10707 10714 10721
10599 10588 10577 10568 10557 10547 10539 10535 10522 10515 10505 10496 10488 10481 10471 10466 10462 10460 10459 10459 10460 10460 10463 10465 10468 10474 10481 10489 10496 10502 10510 10519 10530 10541 10552 10564 10576 10592 10608 10621 10633 10643 10655 10660 10662 10673 10685 10691 10698
10583 10573 10561 10550 10540 10528 10515 10511 10501 10492 10486 10477 10470 10466 10458 10453 10448 10446 10446 10448 10449 10450 10451 10451 10452 10455 10457 10460 10466 10472 10476 10486 10495 10506 10519 10533 10544 10554 10569 10586 10599 10613 10623 10629 10641 10652 10662 10671 10679